Weather History for Monroe, MI

Change the Weather History Date:

Saturday, September 1, 2012

  Actual Average Record
Temperature  
Mean Temperature 73 °F -  
Max Temperature 80 °F 80 °F 99 °F (1953)
Min Temperature 66 °F 59 °F 47 °F (1938)
Cooling Degree Days 8    
Growing Degree Days 23 (Base 50)    
Moisture  
Dew Point 64 °F    
Average Humidity 73    
Maximum Humidity 100    
Minimum Humidity 47    
Precipitation  
Precipitation 0.00 in - - ()
Sea Level Pressure  
Sea Level Pressure 30.08 in    
Wind  
Wind Speed 3 mph (East)    
Max Wind Speed 8 mph    
Max Gust Speed -    
Visibility 10 miles    
Events Rain    
Averages and records for this station are not official NWS values.
T = Trace of Precipitation, MM = Missing Value Source: NWS Daily Summary

Daily Weather History Graph

Daily Weather History Graph

Search for Another Location

Airport:

Trip Planner

Search our weather history database for the weather conditions in past years. The results will help you decide how hot, cold, wet, or windy it might be!

Date:

Astronomy

Sep. 01, 2012 Rise Set
Actual Time 6:59 AM EDT 8:06 PM EDT
Civil Twilight 6:31 AM EDT 8:35 PM EDT
Nautical Twilight 5:56 AM EDT 9:09 PM EDT
Astronomical Twilight 5:21 AM EDT 9:44 PM EDT
Moon 8:20 PM EDT (9/1) 8:08 AM EDT (9/1)
Length of Visible Light 14h 03m
Length of Day
13h 06m
Full, 99% of the Moon is Illuminated
Sep 1
Full
Sep 8
Last Quarter
Sep 15
New
Sep 22
First Quarter
Sep 29
Full

Hourly Weather History & Observations

Time (EDT) Temp. Heat Index Dew Point Humidity Pressure Visibility Wind Dir Wind Speed Gust Speed Precip Events Conditions
12:14 AM 75.2 °F - 75.2 °F 100% 30.05 in 10.0 mi West 3.5 mph - N/A   Clear
12:34 AM 75.2 °F - 75.2 °F 100% 30.06 in 10.0 mi WNW 3.5 mph - N/A   Clear
12:54 AM 75.2 °F - 75.2 °F 100% 30.06 in 10.0 mi West 3.5 mph - N/A   Clear
1:14 AM 73.4 °F - 73.4 °F 100% 30.06 in 10.0 mi WSW 3.5 mph - N/A   Clear
1:34 AM 73.4 °F - 73.4 °F 100% 30.06 in 10.0 mi Calm Calm - N/A   Clear
2:15 AM 73.4 °F - 73.4 °F 100% 30.07 in 10.0 mi Calm Calm - N/A   Mostly Cloudy
2:35 AM 73.4 °F - 71.6 °F 94% 30.09 in 10.0 mi East 6.9 mph - N/A   Overcast
2:55 AM 73.4 °F - 68.0 °F 83% 30.09 in 10.0 mi East 3.5 mph - N/A   Scattered Clouds
3:15 AM 71.6 °F - 66.2 °F 83% 30.09 in 10.0 mi East 3.5 mph - N/A   Scattered Clouds
3:30 AM 71.6 °F - 66.2 °F 83% 30.09 in 10.0 mi ENE 3.5 mph - N/A   Clear
3:50 AM 71.6 °F - 64.4 °F 78% 30.08 in 10.0 mi NE 3.5 mph - N/A   Clear
4:10 AM 71.6 °F - 64.4 °F 78% 30.09 in 10.0 mi ENE 3.5 mph - N/A   Clear
4:30 AM 69.8 °F - 62.6 °F 78% 30.09 in 10.0 mi Calm Calm - N/A   Clear
4:51 AM 69.8 °F - 62.6 °F 78% 30.09 in 10.0 mi Calm Calm - N/A   Clear
5:11 AM 69.8 °F - 62.6 °F 78% 30.09 in 10.0 mi Calm Calm - N/A   Clear
5:31 AM 69.8 °F - 62.6 °F 78% 30.09 in 10.0 mi Calm Calm - N/A   Clear
6:11 AM 69.8 °F - 64.4 °F 83% 30.10 in 10.0 mi Calm Calm - N/A   Scattered Clouds
6:31 AM 68.0 °F - 64.4 °F 88% 30.10 in 10.0 mi Calm Calm - N/A   Scattered Clouds
6:51 AM 66.2 °F - 64.4 °F 94% 30.11 in 10.0 mi Calm Calm - N/A   Mostly Cloudy
7:11 AM 66.2 °F - 66.2 °F 100% 30.11 in 10.0 mi Calm Calm - N/A   Overcast
7:31 AM 66.2 °F - 66.2 °F 100% 30.10 in 10.0 mi ENE 3.5 mph - N/A   Mostly Cloudy
7:52 AM 69.8 °F - 66.2 °F 88% 30.10 in 10.0 mi Calm Calm - N/A   Clear
8:12 AM 69.8 °F - 66.2 °F 88% 30.11 in 10.0 mi Calm Calm - N/A   Clear
8:32 AM 71.6 °F - 66.2 °F 83% 30.11 in 10.0 mi Calm Calm - N/A   Clear
8:52 AM 71.6 °F - 64.4 °F 78% 30.11 in 10.0 mi East 3.5 mph - N/A   Clear
9:12 AM 73.4 °F - 64.4 °F 73% 30.10 in 10.0 mi ENE 8.1 mph - N/A   Clear
9:32 AM 73.4 °F - 62.6 °F 69% 30.10 in 10.0 mi East 5.8 mph - N/A   Clear
9:52 AM 73.4 °F - 64.4 °F 73% 30.11 in 10.0 mi East 4.6 mph - N/A   Clear
10:12 AM 73.4 °F - 64.4 °F 73% 30.11 in 10.0 mi East 6.9 mph - N/A   Clear
10:32 AM 73.4 °F - 64.4 °F 73% 30.12 in 10.0 mi East 5.8 mph - N/A   Clear
10:53 AM 75.2 °F - 62.6 °F 65% 30.12 in 10.0 mi East 5.8 mph - N/A   Clear
11:13 AM 75.2 °F - 62.6 °F 65% 30.11 in 10.0 mi ENE 6.9 mph - N/A   Clear
11:33 AM 75.2 °F - 59.0 °F 57% 30.12 in 10.0 mi East 4.6 mph - N/A   Clear
11:53 AM 77.0 °F - 60.8 °F 57% 30.12 in 10.0 mi SE 6.9 mph - N/A   Clear
12:13 PM 77.0 °F - 57.2 °F 50% 30.11 in 10.0 mi East 6.9 mph - N/A   Clear
12:33 PM 78.8 °F - 57.2 °F 47% 30.12 in 10.0 mi SE 6.9 mph - N/A   Clear
12:53 PM 78.8 °F - 60.8 °F 54% 30.11 in 10.0 mi East 4.6 mph - N/A   Clear
1:13 PM 78.8 °F - 60.8 °F 54% 30.11 in 10.0 mi Calm Calm - N/A   Clear
1:33 PM 78.8 °F - 60.8 °F 54% 30.10 in 10.0 mi ESE 4.6 mph - N/A   Clear
1:54 PM 78.8 °F - 60.8 °F 54% 30.09 in 10.0 mi SE 5.8 mph - N/A   Clear
2:14 PM 78.8 °F - 60.8 °F 54% 30.09 in 10.0 mi ESE 4.6 mph - N/A   Mostly Cloudy
2:34 PM 80.6 °F 81.5 °F 60.8 °F 51% 30.08 in 10.0 mi ESE 5.8 mph - N/A   Scattered Clouds
2:54 PM 80.6 °F 81.1 °F 59.0 °F 48% 30.07 in 10.0 mi ENE 3.5 mph - N/A   Scattered Clouds
3:14 PM 78.8 °F - 57.2 °F 47% 30.07 in 10.0 mi ESE 3.5 mph - N/A   Mostly Cloudy
3:34 PM 78.8 °F - 57.2 °F 47% 30.07 in 10.0 mi SE 4.6 mph - N/A   Overcast
4:14 PM 78.8 °F - 59.0 °F 51% 30.05 in 10.0 mi Calm Calm - N/A   Scattered Clouds
4:35 PM 78.8 °F - 59.0 °F 51% 30.04 in 10.0 mi ESE 3.5 mph - N/A   Scattered Clouds
5:15 PM 78.8 °F - 60.8 °F 54% 30.03 in 10.0 mi East 3.5 mph - N/A   Scattered Clouds
5:35 PM 78.8 °F - 62.6 °F 57% 30.03 in 10.0 mi ESE 3.5 mph - N/A   Clear
5:55 PM 78.8 °F - 62.6 °F 57% 30.03 in 10.0 mi ESE 4.6 mph - N/A   Scattered Clouds
6:10 PM 78.8 °F - 60.8 °F 54% 30.03 in 10.0 mi East 3.5 mph - N/A   Mostly Cloudy
6:30 PM 78.8 °F - 62.6 °F 57% 30.03 in 10.0 mi Calm Calm - N/A   Mostly Cloudy
6:50 PM 77.0 °F - 59.0 °F 54% 30.03 in 10.0 mi ESE 3.5 mph - N/A   Mostly Cloudy
7:10 PM 77.0 °F - 57.2 °F 50% 30.03 in 10.0 mi East 3.5 mph - N/A   Overcast
7:31 PM 75.2 °F - 57.2 °F 53% 30.04 in 10.0 mi Calm Calm - N/A   Overcast
7:51 PM 75.2 °F - 60.8 °F 61% 30.04 in 10.0 mi Calm Calm - N/A   Mostly Cloudy
8:11 PM 75.2 °F - 62.6 °F 65% 30.03 in 10.0 mi East 3.5 mph - N/A   Mostly Cloudy
8:31 PM 73.4 °F - 62.6 °F 69% 30.03 in 10.0 mi East 4.6 mph - N/A   Scattered Clouds
8:51 PM 75.2 °F - 64.4 °F 69% 30.04 in 10.0 mi Calm Calm - N/A   Mostly Cloudy
9:11 PM 75.2 °F - 66.2 °F 73% 30.05 in 10.0 mi Calm Calm - N/A   Overcast
9:31 PM 75.2 °F - 68.0 °F 78% 30.07 in 10.0 mi SW 4.6 mph - N/A   Overcast
10:11 PM 69.8 °F - 69.8 °F 100% 30.06 in 2.5 mi ESE 5.8 mph - N/A Rain Rain
10:32 PM 68.0 °F - 68.0 °F 100% 30.06 in 5.0 mi ENE 3.5 mph - N/A Rain Rain
10:52 PM 69.8 °F - 69.8 °F 100% 30.05 in 7.0 mi ESE 4.6 mph - N/A Rain Rain
11:12 PM 69.8 °F - 69.8 °F 100% 30.05 in 10.0 mi East 5.8 mph - N/A Rain Light Rain
11:32 PM 69.8 °F - 69.8 °F 100% 30.04 in 10.0 mi ENE 5.8 mph - N/A Rain Light Rain